Accueil
METAR-TAF:

METAR-TAF

Aéroports :

Saint-Brieuc, France

Aéroport de Saint-Brieuc Armor

latitude: 48-32N, longitude: 002-51W, altitude: 138 m

Observation

Le bulletin a été fait il y a 39 minutes, à 12:00 UTC
Vent 10 kt de ouest/nord-ouest, variant entre sud/sud-ouest et nord/nord-ouest
Température 19°C
Humidité 64%
Pression 1011 hPa
Visibilité 10 km ou plus
Quelques nuages à une hauteur de 3000 ft
Nuages fragmentés à une hauteur de 3600 ft
Nuages fragmentés à une hauteur de 4600 ft

METAR: LFRT 271200Z AUTO 29010KT 210V340 9999 FEW030 BKN036 BKN046 19/12 Q1011

Heure: 14:39 (12:39 UTC)


TAF: absent

Observations et prévisions météorologiques de plus de 4000 aéroports (messages METAR et TAF).

Les stations disponibles sont représentées par des disques jaunes et rouges sur la carte.

Passer la souris dessus pour voir le nom de la station.

Cliquer dessus pour voir les observations et prévisions météorologiques.

Pour changer de carte: cliquez sur les boutons verts avec une croix noire pour zoomer, sur le bouton vert avec un tiret pour effectuer un zoom arrière, ou sur les flèches vertes pour les cartes adjacentes.


METAR-TAF: